* Astronomy

Members Login
Username 
 
Password 
    Remember Me  
Post Info TOPIC: Asteroid 2012 AT10


L

Posts: 131433
Date:
Asteroid 2012 AT10
Permalink  
 


Orbital elements:
2012 AT10                                                Earth MOID = 0.3595 AU
Epoch 2012 Mar. 14.0 TT = JDT 2456000.5                 MPC
M 334.81707              (2000.0)            P               Q
n   0.32483594     Peri.  261.43096     -0.88302485     +0.32964834
a   2.0958491      Node   297.22849     -0.11535774     -0.84240713
e   0.4595438      Incl.   22.06732     -0.45492824     -0.42624195
P   3.03           H   20.0           G   0.15           U   7

MPEC 2012 - A56



__________________
Page 1 of 1  sorted by
 
Quick Reply

Please log in to post quick replies.



Create your own FREE Forum
Report Abuse
Powered by ActiveBoard